Current weather by "City, St" or "zip code"  
 

Current Conditions: Thomasville Regional Airport, GA

Fair


81.0 F

Last Updated on Oct 21 2021, 12:55 pm EDT
Humidity: 48%
Wind Speed: SW 5.8 mph
Barometer 30.20 in
Dewpoint: 59.0 F
Visibility: 10.00 mi
Precip: --
Heat Index: 81 F
Wind Chill: NA
Current conditions at:

Thomasville Regional Airport, GA (KTVI)

Lat: 30.90179 Lon: 83.88113

Local Radar Image active severe weather and emergency alerts image image weather storm and storm spotter reports image weather observation monitoring service image
Local
Radar
Active
Alerts
Storm Reports Obs
Monitoring

Sign-up For Email & Text Message Weather Alert Notification Services



Advertise Here

Observation History for Thomasville Regional Airport, GA


Time Wind
(mph)
Vis
(mi)
Weather Precip (in) Temperature (F) Relative
Humidity
Wind
Chill
(F)
Heat
Index
(F)
Pressure
Air Dwpt altimeter
(in)
sea level
(mb)
Rmks
12:55 pm EDT SW 5.8 10.00 Fair -- 81.0 59.0 48% NA 81 30.20 M
11:55 am EDT S 3.5 10.00 Fair -- 77.0 60.8 57% NA NA 30.21 M
10:55 am EDT S 6.9 10.00 Fair -- 75.0 60.8 61% NA NA 30.22 M
9:55 am EDT S 4.6 10.00 Fair -- 70.0 60.8 73% NA NA 30.22 M
9:35 am EDT N 0.0 10.00 Fair -- 66.0 60.8 83% NA NA 30.22 M
8:55 am EDT N 0.0 10.00 Fair -- 64.0 60.8 88% NA NA 30.21 M
7:55 am EDT N 0.0 10.00 Fair -- 59.0 59.0 100% NA NA 30.19 M
7:35 am EDT N 0.0 10.00 Fair -- 59.0 59.0 100% NA NA 30.19 M
6:55 am EDT N 0.0 10.00 Fair -- 61.0 59.0 94% NA NA 30.19 M
5:55 am EDT N 0.0 10.00 Fair -- 61.0 59.0 94% NA NA 30.18 M
4:55 am EDT N 0.0 10.00 Fair -- 63.0 59.0 88% NA NA 30.18 M
4:35 am EDT SE 3.5 10.00 Fair -- 63.0 59.0 88% NA NA 30.17 M
3:55 am EDT N 0.0 10.00 Fair -- 61.0 59.0 94% NA NA 30.18 M
3:35 am EDT N 0.0 10.00 Fair -- 63.0 59.0 88% NA NA 30.19 M
2:55 am EDT N 0.0 10.00 Fair -- 63.0 59.0 88% NA NA 30.19 M
1:55 am EDT N 0.0 10.00 Fair -- 63.0 59.0 88% NA NA 30.20 M
12:55 am EDT N 0.0 10.00 Fair -- 61.0 59.0 94% NA NA 30.22 M
11:55 pm EDT N 0.0 10.00 Fair -- 61.0 59.0 94% NA NA 30.23 M
10:55 pm EDT N 0.0 10.00 Fair -- 61.0 59.0 94% NA NA 30.22 M
9:55 pm EDT N 0.0 10.00 Fair -- 63.0 59.0 88% NA NA 30.21 M
8:55 pm EDT N 0.0 10.00 Fair -- 63.0 59.0 88% NA NA 30.21 M
7:55 pm EDT N 0.0 10.00 Fair -- 64.0 59.0 83% NA NA 30.20 M
7:35 pm EDT N 0.0 10.00 Fair -- 68.0 60.8 78% NA NA 30.20 M
6:55 pm EDT N 0.0 10.00 Fair -- 70.0 59.0 69% NA NA 30.20 M

Regional Weather Observation


Moultrie, Moultrie Municipal Airport, GA (KMGR)

Fair
81.0 F

Southwest Georgia Regional Airport, GA (KABY)

A Few Clouds
85.0 F

Thomasville Regional Airport, GA (KTVI)

Fair
81.0 F

Bainbridge, Decatur County Industrial Air Park Airport, GA (KBGE)

Fair
55.0 F

Donalsonville Municipal Airport, GA (K17J)

Overcast
81.0 F

Tifton Henry Tift Myers, GA (KTMA)

Fair
80.0 F

Advertise Here


Advertise Here